Tracking 35331 objects as of 15-Sep-2026
HD Live streaming from Space Station
objects crossing your sky now

FALCON 9 DEB


FALCON 9 DEB is no longer on orbit


NORAD ID: 56365
Int'l Code: 2023-058BA
Launch date: April 27, 2023
Source: United States (US)
Launch site: AIR FORCE WESTERN TEST RANGE (AFWTR)
Decay date: 2023-06-13

Note: This is SATELLITE DEBRIS
Your satellite tracking list
Your tracking list is empty




NASA's NSSDC Master Catalog

Two Line Element Set (TLE):
1 56365U 23058BA  23162.12325258  .13180554  29007-5  15262-3 0  9994
2 56365  97.6526 166.9260 0007923 206.5224 153.5676 16.49982152  7595
Source of the keplerian elements: AFSPC